Regional Weather Roundup
Issued by NWS

Home | Current Version | Previous Version | Graphics & Text | Print | Product List | Glossary On
Versions: 1 2 3 4 5 6 7 8 9 10 11 12 13 14 15 16 17 18 19 20 21 22 23 24 25 26 27 28
000
ASUS45 KSLC 241610
RWRUT

UTAH REGIONAL WEATHER ROUNDUP
NATIONAL WEATHER SERVICE SALT LAKE CITY UT
1000 AM MDT SUN SEP 24 2017

UTZ001>011-023>025-241700-

NORTHERN UTAH

CITY           SKY/WX    TMP DP  RH WIND       PRES   REMARKS
BRIGHAM CITY   CLOUDY    46  36  67 S3        29.93S
HILL AFB       LGT RAIN  43  39  85 W7        29.92R
LOGAN          LGT RAIN  43  38  82 N13       29.96R
OGDEN          CLOUDY    45  39  79 W3        29.91R
SALT LAKE CITY LGT RAIN  45  42  89 NW14      29.93R
TOOELE VALLEY  DRIZZLE   41  39  93 W17G23    29.95S
WENDOVER       NOT AVBL
HEBER CITY     LGT SNOW  34  32  93 E5        29.90R WCI  30
WEST JORDAN    CLOUDY    42  42 100 NW7       29.94R

$$

UTZ011>015-024>027-241700-

CENTRAL/NORTHEAST UTAH

CITY           SKY/WX    TMP DP  RH WIND       PRES   REMARKS
PROVO AIRPORT  LGT RAIN  39  38  96 SE10      29.97R FOG     WCI  32
MOAB/CANYONLAN MOSUNNY   54  32  43 SW15      29.90R
DELTA          CLOUDY    34  34 100 S10       30.01R WCI  26
PRICE          CLOUDY    41  36  82 W7        29.92R
RICHFIELD      PTSUNNY   41  36  81 S15G21    30.02R
ROOSEVELT      CLOUDY    43  37  81 CALM      29.94S
VERNAL         LGT RAIN  42  38  85 SE6       29.94R

$$

UTZ013>016-019>022-027-241700-

SOUTHERN UTAH

CITY           SKY/WX    TMP DP  RH WIND       PRES   REMARKS
BRYCE CANYON   MOSUNNY   38  25  59 NW18G29   30.01R WCI  28
CEDAR CITY     PTSUNNY   38  38 100 N3        30.02S
MILFORD        PTSUNNY   40  38  93 S5        30.03S
ST GEORGE      CLOUDY    52  36  54 VRB3      30.02R
HANKSVILLE     SUNNY     52  32  46 W3        29.95R
KANAB          SUNNY     45  32  61 SW3       30.06R
BLANDING         N/A     49  21  32 S7        30.04S

$$

REGIONAL REPORTS     COLORADO/ARIZONA

CITY           SKY/WX    TMP DP  RH WIND       PRES   REMARKS
CRAIG, CO      CLOUDY    41  38  89 CALM      29.92R
GRAND JUNCTION SUNNY     51  46  83 N8        29.91R
RIFLE, CO      CLOUDY    45  41  86 W5        29.92R
MONTROSE, CO   SUNNY     54  33  45 NE5       29.93S
CORTEZ, CO     SUNNY     50  32  50 SW3       29.98R
PAGE, AZ       SUNNY     53  30  41 VRB3      29.97R
GRAND CANYON   SUNNY     44  27  51 VRB3      30.04R
KINGMAN, AZ    SUNNY     55  33  43 NE3       30.01R
FLAGSTAFF, AZ  SUNNY     48  16  27 CALM      30.02R

$$

REGIONAL REPORTS    NEVADA/IDAHO/WYOMING

CITY           SKY/WX    TMP DP  RH WIND       PRES   REMARKS
LAS VEGAS, NV  SUNNY     63  31  30 NE8       29.99S
ELY, NY        MOSUNNY   39  30  70 CALM      30.05S
ELKO, NV       SUNNY     40  33  76 SW9       30.07S WCI  34
POCATELLO, ID  CLOUDY    42  36  79 W5        30.02S
BURLEY, ID     SUNNY     44  33  65 W12G18    30.03S
FORT BRIDGER,  SNOW      33  33 100 NE9       29.95R VSB 1/4 WCI  26
EVANSTON, WY   LGT SNOW  34  34 100 NE9       29.92R VSB 1   WCI  27
ROCK SPRINGS,  CLOUDY    36  31  82 NE31G44   29.91F WCI  23

$$




USA.gov is the U.S. government's official web portal to all federal, state and local government web resources and services.